Total_Precipitation_Accumulation
0.24 0.58 1.29 1.85 2.82 3.05 2.26 1.34 1.02 0.72 0.62 0.73 0.68 0.59 0.73 1.01 1.56 2.76 2.83 2.70 2.19 2.05 2.24 2.81 3.40 3.28 3.12 2.96 2.89 2.83 2.55 2.52 2.71 2.95 2.97 3.11 3.26 3.41 3.50 3.67 3.78 4.00 4.40 4.25 3.83 3.40 3.26 3.18 3.04
0.52 0.97 1.66 2.36 3.24 3.04 2.06 1.21 0.93 0.61 0.58 0.63 0.55 0.50 0.63 0.78 1.01 1.76 2.48 2.49 1.90 1.71 1.92 2.29 2.85 2.98 2.90 2.80 2.73 2.60 2.50 2.52 2.78 3.09 2.97 3.05 3.18 3.34 3.57 3.91 3.92 3.98 3.96 3.57 3.43 3.11 2.90 2.74 2.80
0.86 1.32 2.01 2.64 2.46 2.13 1.42 0.88 0.67 0.52 0.61 0.62 0.54 0.55 0.77 1.16 1.31 1.78 2.03 1.88 1.62 1.52 1.74 2.27 2.62 2.68 2.82 2.90 3.03 2.79 2.76 2.82 3.06 3.14 2.94 2.94 2.95 3.10 3.43 4.02 3.94 3.68 3.41 3.21 3.21 2.97 2.81 2.51 2.47
1.11 1.76 2.06 2.01 1.65 1.22 0.87 0.71 0.52 0.49 0.60 0.55 0.53 0.81 1.15 1.38 1.25 1.43 1.50 1.42 1.29 1.40 1.73 2.22 2.49 2.39 2.60 2.98 3.08 3.02 3.04 3.18 3.27 3.00 2.94 2.90 2.92 2.95 3.19 3.53 3.50 3.39 3.12 3.06 2.99 2.83 2.60 2.45 2.44
1.28 2.01 2.23 1.60 1.15 0.89 0.69 0.58 0.51 0.47 0.44 0.52 0.64 1.09 1.60 1.65 1.18 1.26 1.33 1.18 1.14 1.47 1.82 2.02 2.42 2.19 2.19 2.60 2.97 3.20 3.34 3.51 3.32 2.89 2.69 2.64 2.66 2.72 2.83 3.00 3.05 3.03 2.84 2.79 2.75 2.68 2.46 2.49 2.49
1.60 1.89 1.73 1.20 0.89 0.68 0.61 0.53 0.46 0.43 0.47 0.56 0.71 0.96 1.79 1.85 1.42 1.50 1.39 1.37 1.40 1.54 1.68 1.97 2.23 2.07 2.09 2.24 2.40 2.68 3.07 3.31 3.05 2.69 2.51 2.40 2.30 2.31 2.42 2.63 2.84 2.81 2.63 2.47 2.44 2.46 2.48 2.44 2.30
1.61 1.72 1.27 0.80 0.71 0.61 0.51 0.43 0.41 0.45 0.60 0.69 0.75 1.12 1.98 2.21 1.76 1.56 1.61 1.72 1.68 1.76 1.95 1.98 1.88 1.89 2.05 2.26 2.44 2.55 2.86 2.92 2.75 2.62 2.43 2.29 2.19 2.24 2.26 2.32 2.63 2.65 2.52 2.44 2.42 2.42 2.39 2.34 2.26
1.07 1.16 0.89 0.61 0.59 0.59 0.41 0.34 0.38 0.48 0.65 0.76 0.91 1.30 2.08 2.15 1.77 1.65 1.78 2.11 2.02 1.96 1.95 1.88 1.71 1.77 1.82 2.08 2.54 2.68 2.73 2.73 2.67 2.57 2.48 2.32 2.23 2.38 2.39 2.20 2.62 2.75 2.73 2.64 2.65 2.72 2.44 2.38 2.50
0.71 0.96 0.79 0.56 0.51 0.48 0.37 0.33 0.40 0.52 0.67 0.77 1.05 1.28 1.50 1.55 1.65 1.64 1.93 2.40 2.48 2.24 2.09 1.90 1.56 1.70 1.91 2.14 2.32 2.50 2.58 2.74 2.83 2.79 2.65 2.62 2.71 2.72 2.84 2.62 3.12 3.28 3.19 3.05 3.06 3.12 2.96 2.87 2.74
0.61 0.70 0.57 0.37 0.38 0.39 0.34 0.31 0.41 0.71 0.94 1.19 1.43 1.42 1.30 1.33 1.56 1.74 1.99 2.50 2.61 2.51 2.31 2.06 1.77 1.80 2.07 2.06 2.09 2.32 2.34 2.55 2.72 2.91 2.79 3.10 3.42 3.26 2.61 3.00 3.57 3.92 3.95 3.75 3.74 3.82 3.57 3.20 2.90
0.49 0.50 0.35 0.30 0.29 0.24 0.23 0.29 0.37 0.57 1.15 1.65 1.87 1.83 1.69 1.48 1.69 2.06 2.45 2.85 2.64 2.41 2.33 2.29 2.15 2.14 2.04 2.18 2.17 2.37 2.59 3.01 2.95 2.90 2.88 3.33 3.23 2.94 2.75 3.12 3.65 4.19 4.09 3.85 3.91 4.06 3.55 3.54 3.86
0.39 0.34 0.22 0.19 0.22 0.19 0.22 0.29 0.44 0.60 1.11 1.40 1.57 1.64 1.64 1.64 1.79 2.04 2.36 2.69 2.91 2.85 2.73 2.68 2.59 2.52 2.55 2.50 2.39 2.33 2.45 2.73 2.88 3.14 2.89 3.22 3.54 3.48 3.44 3.80 3.81 4.13 4.32 4.71 4.48 4.58 4.28 4.15 3.94
0.29 0.24 0.18 0.15 0.16 0.18 0.23 0.32 0.50 0.70 0.96 0.99 1.04 1.15 1.41 1.71 2.16 2.47 2.60 2.95 3.08 3.25 3.15 3.15 3.07 3.08 3.14 3.14 2.99 2.47 2.64 2.74 2.88 3.23 3.27 3.39 3.77 3.96 4.04 4.09 4.06 3.77 4.09 4.56 4.86 4.43 4.72 4.71 4.22
0.27 0.22 0.19 0.18 0.17 0.21 0.25 0.34 0.47 0.73 0.84 0.86 0.93 1.14 1.41 1.74 2.06 2.53 2.82 3.23 3.24 3.35 3.59 3.81 3.74 3.66 3.72 3.66 3.56 3.34 3.13 3.35 3.33 3.52 3.76 3.95 4.32 4.56 4.51 4.33 4.27 3.87 3.79 4.14 4.37 4.36 4.87 4.69 4.36
0.27 0.28 0.27 0.24 0.22 0.26 0.44 0.69 0.73 0.83 0.83 0.99 1.09 1.36 1.53 1.84 2.22 2.35 2.51 2.80 3.16 3.50 4.12 4.51 4.52 4.42 4.48 4.47 4.18 3.89 3.85 3.86 4.16 4.46 4.53 4.53 4.68 5.04 4.84 4.59 4.18 3.92 3.90 4.14 4.12 4.18 4.34 4.11 3.97
0.33 0.45 0.53 0.39 0.31 0.32 0.54 1.13 1.02 0.92 0.96 1.14 1.18 1.42 1.78 1.87 2.22 2.37 2.40 2.65 3.31 3.85 4.57 4.99 5.09 5.30 5.22 5.30 5.08 4.65 4.56 4.57 4.63 4.79 5.00 4.76 4.75 4.68 4.81 4.49 3.98 3.98 3.90 3.99 4.21 4.09 4.16 4.13 4.09
0.45 0.54 0.58 0.54 0.35 0.38 0.55 1.01 1.02 0.95 1.11 1.24 1.40 1.45 1.62 1.85 2.31 2.63 2.78 2.91 3.55 4.24 4.99 5.56 6.14 6.36 6.19 5.97 5.66 5.38 5.38 5.23 5.06 5.05 5.06 4.93 4.59 4.38 4.64 4.39 4.15 3.99 3.93 3.85 3.63 4.14 4.28 4.31 4.30
0.51 0.51 0.56 0.61 0.38 0.37 0.61 0.86 1.01 1.10 1.25 1.39 1.43 1.40 1.53 1.89 2.14 2.53 2.89 3.31 3.88 4.36 5.14 5.90 6.65 6.86 6.59 6.08 5.91 5.91 5.74 5.44 5.16 4.94 4.94 4.63 4.39 4.00 4.26 3.99 3.91 3.99 4.18 4.06 4.14 4.51 4.49 4.13 4.23
0.36 0.42 0.55 0.57 0.39 0.44 0.66 0.85 1.04 1.22 1.36 1.42 1.52 1.48 1.67 1.98 2.16 2.55 2.98 3.47 4.00 4.55 5.27 5.95 6.58 6.73 6.60 6.29 6.01 5.78 5.37 5.08 4.75 4.50 4.39 4.19 3.86 3.69 4.08 3.72 4.08 3.94 3.90 3.79 3.80 4.07 4.08 3.68 3.88
0.31 0.42 0.57 0.56 0.42 0.45 0.71 0.96 1.21 1.28 1.21 1.19 1.36 1.45 1.53 1.77 2.10 2.51 3.08 3.39 3.77 4.32 4.90 5.29 5.43 5.28 5.20 5.32 5.31 5.05 5.07 4.91 4.85 4.73 4.63 4.14 3.91 3.79 3.52 3.76 3.56 3.54 3.76 3.56 3.55 3.83 3.77 3.39 3.73
0.24 0.34 0.45 0.49 0.48 0.59 0.87 1.30 1.54 1.50 1.21 1.08 1.09 1.22 1.37 1.50 1.72 2.11 2.70 3.07 3.31 3.80 4.12 4.13 4.15 4.18 4.35 4.45 4.43 4.49 4.75 4.84 4.94 4.93 4.72 4.33 4.10 3.92 3.70 3.54 3.39 3.41 3.22 3.41 3.50 3.57 3.70 3.67 3.57
0.24 0.22 0.29 0.36 0.56 0.96 1.09 1.72 1.99 1.99 1.64 1.28 1.15 1.28 1.36 1.42 1.45 1.78 2.15 2.41 2.76 3.07 3.21 3.19 3.33 3.53 3.68 3.78 3.77 3.68 3.73 4.00 4.29 4.58 4.76 4.70 4.39 4.10 3.79 3.53 3.32 3.18 2.98 3.29 2.97 3.11 3.47 3.73 3.40
0.19 0.18 0.25 0.38 0.55 0.84 0.98 1.37 1.92 2.15 2.08 1.65 1.33 1.25 1.19 1.32 1.50 1.69 1.82 2.03 2.16 2.28 2.45 2.52 2.80 3.31 3.54 3.60 3.71 3.67 3.43 3.46 3.59 3.75 3.99 4.00 4.03 3.86 3.47 3.35 3.28 3.11 2.90 2.94 2.94 3.30 3.30 3.27 3.20
0.17 0.23 0.37 0.55 0.82 1.21 1.04 1.19 1.77 1.92 1.93 1.53 1.29 1.21 1.11 1.11 1.23 1.44 1.71 1.82 1.83 1.87 2.03 2.26 2.61 3.20 3.51 3.58 3.48 3.52 3.56 3.65 3.56 3.53 3.63 3.55 3.54 3.48 3.16 3.02 3.15 3.06 2.94 2.98 2.97 3.07 3.12 3.26 3.32
0.20 0.40 0.92 1.42 1.78 1.76 1.08 1.07 1.37 1.40 1.27 1.23 1.10 1.14 1.21 1.09 1.02 1.03 1.22 1.46 1.49 1.50 1.68 1.95 2.23 2.71 3.03 3.19 3.05 3.03 3.27 3.50 3.39 3.21 3.16 3.14 2.99 2.91 2.86 2.87 3.00 2.91 2.97 3.01 3.11 3.14 3.11 3.22 3.26
0.19 0.33 0.80 1.22 1.29 1.38 1.25 1.60 1.64 1.21 1.03 0.93 0.85 0.93 1.02 0.90 0.80 0.76 0.83 1.02 1.29 1.35 1.48 1.64 1.91 2.17 2.51 2.75 2.79 2.84 3.04 3.19 3.14 3.36 3.08 2.92 2.57 2.46 2.58 2.79 2.79 2.68 2.68 2.73 3.20 3.19 3.20 3.31 3.22
0.20 0.23 0.37 0.56 0.76 1.15 1.45 1.64 1.54 1.26 1.16 0.97 0.81 0.79 0.78 0.71 0.71 0.76 0.83 1.05 1.16 1.17 1.27 1.42 1.65 1.87 2.17 2.43 2.58 2.63 2.61 2.65 2.81 2.99 2.91 2.74 2.67 2.40 2.48 2.60 2.84 2.90 2.95 3.01 3.22 3.17 3.20 3.43 3.36
0.18 0.21 0.31 0.44 0.74 1.05 1.36 1.79 1.85 1.56 1.33 1.12 1.04 0.87 0.80 0.77 0.76 0.77 0.80 0.88 0.95 1.00 1.14 1.38 1.64 1.71 1.94 2.29 2.53 2.47 2.56 2.48 2.64 2.62 2.60 2.63 2.57 2.53 2.61 2.63 2.72 2.92 3.04 3.07 3.21 3.17 3.23 3.44 3.45
0.24 0.22 0.26 0.35 0.46 0.71 1.31 1.54 1.31 1.27 1.20 1.16 1.05 0.98 0.94 0.90 0.84 0.79 0.81 0.84 0.97 0.92 1.01 1.20 1.40 1.57 1.87 2.25 2.59 2.66 2.57 2.55 2.61 2.44 2.39 2.52 2.55 2.54 2.66 2.69 2.68 2.66 2.82 3.06 3.29 3.14 3.28 3.41 3.45
0.24 0.24 0.26 0.37 0.41 0.48 0.80 1.12 0.79 0.87 1.00 1.05 0.94 0.87 0.83 0.75 0.72 0.68 0.67 0.75 0.75 0.77 0.90 1.26 1.58 1.98 2.23 2.61 2.97 3.03 2.80 2.59 2.45 2.24 2.21 2.38 2.57 2.60 2.60 2.61 2.59 2.52 2.66 2.96 3.09 3.17 3.48 3.62 3.47